When you browse on this site, cookies collect data to enhance your experience and personalize the content and advertising you see.
Visit our Privacy Policy to learn more. By continuing to use the site, you agree to this use of cookies and data.
  • In Spain
  • List of Countries
  • For 7 days
  • Water Temperature
  • Satellite Maps
  • Weather Map
  • Weather Widgets
  • user-avatar
    Login

    Hourly Weather San Fernando de Apure

    Today, 16 December, Sunday

    Time Temperature Precipitation Wind Pressure Humidity
    00:00 +28°C° 0 mm 3 mps 756 mmHg 55%
    01:00 +27°C° 0 mm 3 mps 756 mmHg 58%
    02:00 +27°C° 0 mm 3 mps 756 mmHg 61%
    03:00 +26°C° 0 mm 3 mps 756 mmHg 65%
    04:00 +26°C° 0 mm 3 mps 756 mmHg 68%
    05:00 +25°C° 0 mm 2 mps 756 mmHg 71%
    06:00 +26°C° 0 mm 3 mps 757 mmHg 71%
    07:00 +26°C° 0 mm 3 mps 757 mmHg 70%
    08:00 +26°C° 0 mm 4 mps 757 mmHg 70%
    09:00 +28°C° 0 mm 4 mps 757 mmHg 63%
    10:00 +30°C° 0 mm 4 mps 757 mmHg 56%
    11:00 +33°C° 0 mm 4 mps 757 mmHg 50%
    12:00 +34°C° 0 mm 4 mps 756 mmHg 46%
    13:00 +35°C° 0 mm 4 mps 755 mmHg 41%
    14:00 +37°C° 0 mm 3 mps 754 mmHg 37%
    15:00 +36°C° 0 mm 3 mps 754 mmHg 38%
    16:00 +36°C° 0 mm 3 mps 753 mmHg 38%
    17:00 +36°C° 0 mm 2 mps 753 mmHg 39%
    18:00 +34°C° 0 mm 2 mps 753 mmHg 43%
    19:00 +31°C° 0 mm 2 mps 753 mmHg 46%
    20:00 +29°C° 0 mm 2 mps 753 mmHg 50%
    21:00 +28°C° 0 mm 2 mps 754 mmHg 51%
    22:00 +28°C° 0 mm 2 mps 754 mmHg 52%
    23:00 +27°C° 0 mm 2 mps 755 mmHg 53%

    Tomorrow, 17 December, Monday

    Time Temperature Precipitation Wind Pressure Humidity
    00:00 +27°C° 0 mm 2 mps 755 mmHg 57%
    01:00 +27°C° 0 mm 2 mps 755 mmHg 60%
    02:00 +27°C° 0 mm 2 mps 755 mmHg 63%
    03:00 +26°C° 0 mm 3 mps 755 mmHg 66%
    04:00 +26°C° 0 mm 3 mps 755 mmHg 70%
    05:00 +26°C° 0 mm 3 mps 755 mmHg 73%
    06:00 +26°C° 0 mm 3 mps 755 mmHg 73%
    07:00 +27°C° 0 mm 4 mps 756 mmHg 73%
    08:00 +27°C° 0 mm 4 mps 756 mmHg 73%
    09:00 +29°C° 0 mm 4 mps 756 mmHg 66%
    10:00 +32°C° 0 mm 4 mps 756 mmHg 59%
    11:00 +34°C° 0 mm 4 mps 756 mmHg 52%
    12:00 +35°C° 0 mm 4 mps 755 mmHg 48%
    13:00 +36°C° 0 mm 4 mps 754 mmHg 45%
    14:00 +37°C° 0 mm 4 mps 753 mmHg 41%
    15:00 +37°C° 0 mm 3 mps 752 mmHg 42%
    16:00 +37°C° 0 mm 3 mps 752 mmHg 42%
    17:00 +36°C° 0 mm 3 mps 751 mmHg 43%
    18:00 +35°C° 0 mm 3 mps 752 mmHg 47%
    19:00 +32°C° 0 mm 2 mps 752 mmHg 51%
    20:00 +30°C° 0 mm 2 mps 753 mmHg 55%
    21:00 +30°C° 0 mm 2 mps 753 mmHg 57%
    22:00 +29°C° 0 mm 2 mps 754 mmHg 58%
    23:00 +29°C° 0 mm 2 mps 754 mmHg 59%

    Day after tomorrow, 18 December, Tuesday

    Time Temperature Precipitation Wind Pressure Humidity
    00:00 +29°C° 0 mm 2 mps 754 mmHg 61%
    01:00 +28°C° 0 mm 2 mps 754 mmHg 63%
    02:00 +28°C° 0 mm 3 mps 754 mmHg 64%
    03:00 +27°C° 0 mm 3 mps 754 mmHg 67%
    04:00 +27°C° 0 mm 3 mps 754 mmHg 69%
    05:00 +27°C° 0 mm 3 mps 754 mmHg 72%
    06:00 +27°C° 0 mm 3 mps 754 mmHg 72%
    07:00 +27°C° 0 mm 4 mps 755 mmHg 72%
    08:00 +28°C° 0 mm 4 mps 755 mmHg 72%
    09:00 +30°C° 0 mm 4 mps 755 mmHg 65%
    10:00 +32°C° 0 mm 4 mps 755 mmHg 58%
    11:00 +34°C° 0 mm 4 mps 755 mmHg 52%
    12:00 +35°C° 0 mm 4 mps 754 mmHg 48%
    13:00 +36°C° 0 mm 4 mps 753 mmHg 44%
    14:00 +37°C° 0 mm 4 mps 752 mmHg 40%
    15:00 +37°C° 0 mm 4 mps 752 mmHg 40%
    16:00 +37°C° 0 mm 3 mps 751 mmHg 40%
    17:00 +37°C° 0 mm 3 mps 751 mmHg 41%
    18:00 +35°C° 0 mm 3 mps 751 mmHg 44%
    19:00 +32°C° 0 mm 2 mps 752 mmHg 48%
    20:00 +31°C° 0 mm 2 mps 752 mmHg 52%
    21:00 +30°C° 0 mm 2 mps 753 mmHg 53%
    22:00 +30°C° 0 mm 2 mps 753 mmHg 54%
    23:00 +30°C° 0 mm 2 mps 754 mmHg 55%

    19 December, Wednesday

    Time Temperature Precipitation Wind Pressure Humidity
    00:00 +29°C° 0 mm 3 mps 754 mmHg 58%
    01:00 +29°C° 0 mm 3 mps 754 mmHg 61%
    02:00 +28°C° 0 mm 3 mps 754 mmHg 65%
    03:00 +28°C° 0 mm 3 mps 754 mmHg 68%
    04:00 +27°C° 0 mm 3 mps 754 mmHg 71%
    05:00 +27°C° 0 mm 3 mps 754 mmHg 74%
    06:00 +27°C° 0 mm 3 mps 754 mmHg 74%
    07:00 +28°C° 0 mm 4 mps 755 mmHg 73%
    08:00 +28°C° 0 mm 4 mps 756 mmHg 73%
    09:00 +30°C° 0 mm 4 mps 756 mmHg 66%
    10:00 +33°C° 0 mm 4 mps 755 mmHg 59%
    11:00 +34°C° 0 mm 5 mps 755 mmHg 53%
    12:00 +35°C° 0 mm 4 mps 754 mmHg 49%
    13:00 +36°C° 0 mm 4 mps 753 mmHg 45%
    14:00 +37°C° 0 mm 4 mps 752 mmHg 41%
    15:00 +37°C° 0 mm 4 mps 752 mmHg 42%
    16:00 +36°C° 0 mm 4 mps 751 mmHg 44%
    17:00 +36°C° 0 mm 3 mps 751 mmHg 45%
    18:00 +34°C° 0 mm 3 mps 751 mmHg 49%
    19:00 +33°C° 0 mm 3 mps 752 mmHg 52%
    20:00 +31°C° 0 mm 2 mps 753 mmHg 56%
    21:00 +30°C° 0 mm 2 mps 753 mmHg 57%
    22:00 +30°C° 0 mm 2 mps 753 mmHg 59%
    23:00 +29°C° 0 mm 2 mps 754 mmHg 60%

    20 December, Thursday

    Time Temperature Precipitation Wind Pressure Humidity
    00:00 +29°C° 0 mm 2 mps 754 mmHg 62%
    01:00 +28°C° 0 mm 3 mps 753 mmHg 65%
    02:00 +28°C° 0 mm 3 mps 753 mmHg 67%
    03:00 +28°C° 0 mm 3 mps 753 mmHg 69%
    04:00 +27°C° 0 mm 3 mps 753 mmHg 71%
    05:00 +27°C° 0 mm 3 mps 753 mmHg 73%
    06:00 +27°C° 0 mm 3 mps 754 mmHg 73%
    07:00 +28°C° 0 mm 4 mps 755 mmHg 72%
    08:00 +28°C° 0 mm 4 mps 755 mmHg 71%
    09:00 +30°C° 0 mm 5 mps 755 mmHg 64%
    10:00 +33°C° 0 mm 5 mps 755 mmHg 57%
    11:00 +34°C° 0 mm 5 mps 755 mmHg 51%
    12:00 +35°C° 0 mm 5 mps 754 mmHg 48%
    13:00 +36°C° 0 mm 5 mps 753 mmHg 45%
    14:00 +37°C° 0 mm 5 mps 752 mmHg 42%
    15:00 +37°C° 0 mm 5 mps 752 mmHg 43%
    16:00 +36°C° 0 mm 4 mps 751 mmHg 43%
    17:00 +36°C° 0 mm 4 mps 751 mmHg 44%
    18:00 +34°C° 0 mm 4 mps 751 mmHg 47%
    19:00 +33°C° 0 mm 3 mps 752 mmHg 51%
    20:00 +31°C° 0 mm 3 mps 753 mmHg 55%
    21:00 +30°C° 0 mm 3 mps 753 mmHg 57%
    22:00 +30°C° 0 mm 3 mps 753 mmHg 59%
    23:00 +29°C° 0 mm 3 mps 754 mmHg 61%

    21 December, Friday

    Time Temperature Precipitation Wind Pressure Humidity
    00:00 +29°C° 0 mm 3 mps 753 mmHg 64%
    01:00 +28°C° 0 mm 3 mps 753 mmHg 66%
    02:00 +28°C° 0 mm 3 mps 753 mmHg 69%
    03:00 +28°C° 0 mm 3 mps 753 mmHg 70%
    04:00 +27°C° 0 mm 3 mps 753 mmHg 72%
    05:00 +27°C° 0 mm 3 mps 753 mmHg 74%
    06:00 +27°C° 0 mm 3 mps 754 mmHg 73%
    07:00 +27°C° 0 mm 4 mps 755 mmHg 72%
    08:00 +28°C° 0 mm 4 mps 755 mmHg 72%
    09:00 +30°C° 0 mm 4 mps 755 mmHg 65%
    10:00 +32°C° 0 mm 5 mps 755 mmHg 57%
    11:00 +34°C° 0 mm 5 mps 755 mmHg 50%
    12:00 +35°C° 0 mm 5 mps 754 mmHg 45%
    13:00 +37°C° 0 mm 5 mps 753 mmHg 41%
    14:00 +38°C° 0 mm 4 mps 752 mmHg 36%
    15:00 +37°C° 0 mm 4 mps 752 mmHg 35%
    16:00 +37°C° 0 mm 4 mps 751 mmHg 35%
    17:00 +37°C° 0 mm 4 mps 751 mmHg 35%
    18:00 +35°C° 0 mm 3 mps 751 mmHg 39%
    19:00 +33°C° 0 mm 3 mps 752 mmHg 42%
    20:00 +31°C° 0 mm 2 mps 752 mmHg 46%
    21:00 +30°C° 0 mm 2 mps 753 mmHg 47%
    22:00 +30°C° 0 mm 3 mps 753 mmHg 47%
    23:00 +30°C° 0 mm 3 mps 753 mmHg 48%
    Show more